DELTA 1 DEB, 21374

Orbit data source: Space-Track

DELTA 1 DEB, 21374 is space debris in SSO originally from a launch on Thu, 12 Jun 1975 UTC launched from the Air Force Western Test Range (AFWTR). Debris objects in space refer to the collection of defunct objects orbiting the Earth. Examples of debris include non-operational satellites, rocket bodies, and fragments generated from explosions, collisions, or faulty payload assembly.

Loading next visibility...
Identifier
21374, 1975-052CU
Orbit
SSO
Country
Flag of USUS
Related business
Manufacturer
Unknown
Mission
Spacecraft
Bus & Motor
Unknown
Mass
Unknown
Launch date (UTC)
1975-06-12 (51 years ago)
Launch vehicle
Unknown
Launch site
Air Force Western Test Range (AFWTR)
Object type
Payload
Rocket body
Debris
Shape & HBR
Unknown shape, 0.1 m
Radar Cross Section
Medium (>0.1 m² and <1 m²)

Expand to show TLE details & history
Last TLE update: 2 days ago

TLE from 2 days ago
0 DELTA 1 DEB
1 21374U 75052CU  26171.03934123  .00000572  00000-0  64705-3 0  9997
2 21374  99.8743  16.1640 0254716 282.4188 234.3802 13.62132916734162
Epoch: 2026-06-20T00:56Z
TLE epoch observation values (Epoch: 2026-06-20T00:56:39.082Z)
Latitude
25.15385°
Longitude
-81.59392°
Altitude
1,143.883 km
Speed
7.227 km/s
True Right ascension
13h 23m 18s
True Declination
25° 01' 43"
Sunlit
Object was in daylight at epoch
Visualization orbit readout
Latitude
Unknown
Longitude
Unknown
Altitude
Unknown
Speed
Unknown
Apparent Right ascension
Unknown
Apparent Declination
Unknown
Sunlit
N/A
Visualization observer readout
Local Sidereal Time
15:45:16
Azimuth
Unknown
Elevation
Unknown
Doppler factor
Unknown
Orbital elements
Apogee altitude
1,213.818 km
Perigee altitude
836.666 km
Semi-major axis
7,403.379 km
Eccentricity
0.02547
Inclination
99.8743°
RAAN
16.164°
Arg. of periapsis
282.4188°
True anomaly
232.05135°
Mean anomaly
234.3802°
Eccentric anomaly
233.21143°
Mean motion
3.4072 °/min
Orbital period
105.66 mins
BSTAR
0.00064705
Loading maneuver chart data...
Computing Atmospheric mass density...

Documentation

Showing up to 5 results
|